sat.trackr.live / text

‹ back to catalog

STARLINK-34786

NORAD 65391 · 2025-191N

PAYLOAD ACTIVE UNKNOWN

§ Identity

Operator
Country
US
Launch date
2025-08-30
Launch site
AFWTR
Launch vehicle
Mass (kg)
RCS (m²)

Purposes: comms

External: N2YO · Heavens-Above · Gunter

§ Orbital elements

Epoch: 2026-05-25T03:00:06.079104Z

Period
95.64 min
Inclination
97.4538°
Eccentricity
0.0002047
Mean motion
15.05665247 rev/d
Perigee alt
548.0 km
Apogee alt
550.9 km
Semi-major
6,927.6 km
B*
1.5128e-4
RAAN
16.5353°
Arg perigee
68.9900°
Mean anomaly
291.1546°
Rev number
4,177

§ Raw data

STARLINK-347861 65391U 25191N   26145.12507036  .00002126  00000+0  15128-3 0  99942 65391  97.4538  16.5353 0002047  68.9900 291.1546 15.05665247 41778

JSON: /api/v1/satellites/65391 · /tle

For live sub-satellite position, see the globe view (requires WebGL).

§ Visibility from observer

Set your observer location to see the next 7 days of passes ≥ 10°. The values pass through the URL so the page stays shareable.

No JS? Fill the form by hand. The geolocation button needs JavaScript.